SHIJIAN 6 04B (SJ-6 04B)

Satellite information

Favourite Embed

Satellite Type and Status

PAYLOADIN ORBIT

Key statistics

Satellite SHIJIAN 6 04B (SJ-6 04B) at a glance.

Uptime

5388

Days in orbit

Revolutions

≈ 15.0

Per day

Orbit

SSO

Sun Synchronous Orbit

Inclination

97.9

Latest

Satellite identification and parameters

Extended collection of information and parameters for SHIJIAN 6 04B (SJ-6 04B).

Object identification

Identified? True

Debris? False

Object name: SHIJIAN 6 04B (SJ-6 04B)

International designator: 2010-051B

Object number (NORAD): 37180

Object ID (CCSDS): 37180

Country: PEOPLES REPUBLIC OF CHINA (PRC)

Current information (Y/N): Y

RCS size: LARGE

Orbital parameters

Period: 96.109 minutes

Inclination: 97.861 deg

SMA: 6950.286 km

Apoapsis: 580.203 km

Periapsis: 564.098 km

RAAN: 185.1035 deg

Eccentricy: 0.0011586

Argument of periapsis: 36.4779 deg

Mean anomaly: 323.7231 deg

Mean motion: 14.98300052 rev/day

Mean motion (dot): 0.0000154 rev/day2

B* drag term: 0.00013442 1/REarth

Two-line elements (TLE)

Creation date: July 6, 2025, 10:56 p.m.

Reference frame: TEME

Reference center: EARTH

Epoch: July 6, 2025, 9 p.m. UTC

TLE line 0: 0 SHIJIAN 6 04B (SJ-6 04B)

TLE line 1: 1 37180U 10051B 25187.87563409 .00001540 00000-0 13442-3 0 9998

TLE line 2: 2 37180 97.8610 185.1035 0011586 36.4779 323.7231 14.98300052803972

Live tracking on map

Real-time ground track for satellite SHIJIAN 6 04B (SJ-6 04B).

In-orbit conjunctions

There are no conjunctions computed for SHIJIAN 6 04B (SJ-6 04B), at the moment. Check back to stay up to date, as we update our databases every day.

Go to all conjunctions

Associated space launch

SHIJIAN 6 04B (SJ-6 04B) was lifted into orbit during the mission ‘Long March 4B | Shijian 6G & Shijian 6H’, on board a Long March 4B space rocket.

The launch took place on Oct. 6, 2010, 12:49 a.m. from Launch Complex 7.

For more information about the launch, click the button.

Launch to space Long March 4B | Shijian 6G & Shijian 6H
Long March 4B | Shijian 6G & Shijian 6H

Agency: N/A

Status: Launch Successful

Launch date: Oct. 6, 2010, 12:49 a.m. UTC

Rocket: Long March 4B

Launch pad: Launch Complex 7

Location: Taiyuan Satellite Launch Center, People's Republic of China

...

Latest news about this satellite

There are no fresh news available about this satellite. Check back as we update our databases every day.


Newsletter sign-up

Weekly statistics, charts and insights to help you stay on top of the space industry.